User: anonymous   Login
Location: Santa Teresa Spring
(37.2333°N, 121.7000°W)
Time: 01:15:10
(UTC-08:00)
Language:

Cosmos 1633 - Orbit

View from above orbital plane
View from above orbital plane
View from above satellite
View from above satellite

Ground track
Ground track

The orbit data is extracted from the following two-line orbital elements,

1 15592U 85020A   18055.55766705 +.00001251 +00000-0 +42657-4 0  9994
2 15592 082.5356 066.3026 0013659 011.8881 348.2678 15.29294001802570
Epoch (UTC): 24 February 2018 13:23:02
Eccentricity: 0.0013659
inclination: 82.5356°
perigee height: 468 km
apogee height: 487 km
right ascension of ascending node: 66.3026°
argument of perigee: 11.8881°
revolutions per day: 15.29294001
mean anomaly at epoch: 348.2678°
orbit number at epoch: 80257

The dashed part of the orbit path shows where the satellite is in the earth's shadow,  

DLR